Torna al catalogo

STARLINK-11519

AttivoComunicazioniVLEO
NORAD 62560·PAYLOAD·🇺🇸 United States

Lanciato Jan 10, 2025 da Cape Canaveral Space Force Station

Loading…

Prossimi Passaggi (prossime 24 ore)

TLE

AggiornatoSource: CelesTrak SupGP

Epoca: Sep 14, 2026, 22:55 UTC

1 62560C 25006G   26257.95534722  .00057840  00000+0  44931-3 0  2575
2 62560  43.0007  79.4607 0001569 278.9088 114.5689 15.70806116    11

Traccia STARLINK-11519 in tempo reale con AllMySat

Download on the App Store